Wind_Speed
16 16 16 16 17 18 19 19 20 20 21 22 23 23 23 24 25 25 25 25 25 26 27 27 28 28 28 27 27 27 27 27 27 27 28 27 27 27 27 28 28 29 29 30
18 18 18 18 18 20 20 20 21 22 22 24 25 25 25 25 25 25 25 26 26 26 27 27 27 27 27 28 28 27 27 27 27 27 27 28 28 27 27 28 28 29 29 30
21 20 21 20 20 21 21 22 23 23 24 25 26 25 25 25 25 26 25 26 26 26 26 27 27 27 27 27 27 27 26 26 26 26 27 27 27 27 27 27 28 28 28 28
24 23 23 22 22 22 23 23 24 25 26 26 26 26 26 26 26 27 27 27 27 26 27 27 27 28 28 28 27 26 25 25 25 25 26 26 26 26 26 27 27 27 27 28
26 26 26 24 25 25 25 25 26 27 27 27 27 27 27 27 27 28 27 27 27 27 27 27 28 28 28 28 27 25 25 25 25 25 25 25 26 26 27 27 27 27 27 28
28 29 28 27 27 27 28 28 28 28 28 27 27 27 27 28 27 27 27 28 28 28 28 28 27 27 27 27 26 25 25 24 24 25 25 25 26 26 26 27 27 27 27 28
30 31 30 28 29 30 30 30 29 29 28 27 28 28 28 29 28 28 29 29 29 29 28 28 27 27 27 27 26 25 25 25 25 25 26 26 26 25 25 25 26 27 27 27
32 32 31 30 30 31 31 31 30 30 29 28 28 29 28 28 28 28 28 29 29 29 28 28 28 27 27 26 25 26 26 25 26 25 25 25 25 25 25 26 26 26 26 26
34 34 32 31 31 32 32 32 31 31 31 30 30 30 29 29 29 28 28 29 29 29 28 27 27 27 26 25 25 26 25 26 26 26 26 26 25 25 25 25 25 25 25 26
36 35 34 34 34 34 34 33 32 32 32 32 32 32 31 30 29 29 29 29 29 28 27 27 26 26 26 26 26 26 26 26 27 27 26 26 26 26 26 26 26 26 27 27
37 36 36 36 35 35 35 34 34 33 33 33 33 33 32 31 30 30 30 30 30 29 28 28 27 26 26 27 27 27 27 27 27 27 27 26 26 26 27 27 27 27 27 28
38 37 38 37 36 36 36 35 35 34 34 34 34 33 32 31 31 31 30 30 29 29 29 29 28 28 28 28 28 27 27 28 28 28 28 27 27 28 28 28 29 29 29 29
39 39 39 38 37 37 36 35 35 35 35 34 33 32 32 31 31 31 31 30 30 30 30 30 29 29 29 29 28 28 28 28 28 28 29 29 29 29 29 29 30 30 30 29
40 40 39 38 37 37 36 36 36 35 35 34 33 33 32 32 32 31 31 30 30 30 30 30 29 29 29 29 29 30 30 30 30 30 30 30 31 31 31 31 31 30 30 30
39 39 38 37 37 37 37 36 35 35 34 34 33 32 32 31 31 31 31 30 30 30 30 30 30 30 31 30 30 30 30 31 31 32 32 32 32 32 32 32 32 32 32 32
38 37 37 36 36 36 35 34 33 33 32 31 31 30 30 30 30 30 30 29 29 29 30 30 30 31 31 31 30 30 31 31 32 32 32 32 32 32 32 32 33 33 33 33
36 36 35 35 34 34 33 33 32 32 31 30 30 30 30 30 30 30 30 29 29 29 30 30 30 30 31 31 31 31 31 32 32 32 32 32 32 32 32 33 33 33 34 34
36 35 35 34 34 33 32 32 31 30 30 30 30 30 29 29 30 30 30 29 30 30 31 31 31 31 32 32 32 32 32 32 32 32 32 32 32 32 33 33 33 34 34 35
35 34 34 34 33 32 31 31 31 31 31 31 31 31 30 30 30 31 30 30 30 31 31 32 32 32 33 33 33 32 33 33 33 33 33 33 33 33 33 33 34 35 35 36
34 34 34 33 33 32 31 32 32 32 32 32 32 32 31 31 32 32 32 31 32 32 32 33 33 34 34 34 34 34 34 34 34 34 34 34 34 34 34 34 35 36 36 37
35 36 36 35 34 33 33 33 32 32 32 33 33 33 32 33 33 33 33 33 33 33 34 34 34 35 35 35 35 35 35 34 34 34 34 34 34 34 35 36 36 37 37 38
36 36 36 35 35 35 34 34 34 34 34 34 34 34 33 33 34 34 35 34 34 35 35 35 35 35 35 35 35 35 34 34 34 34 34 34 34 35 35 36 36 37 37 38
36 36 36 36 36 35 35 35 36 36 35 35 35 35 35 34 35 35 36 35 36 36 36 35 35 35 35 35 34 34 34 34 34 34 34 34 34 35 35 36 36 36 37 37
35 35 35 35 35 35 35 36 36 36 35 35 35 36 37 36 36 36 36 37 37 36 36 35 35 35 34 34 33 33 33 33 34 34 34 34 35 35 35 36 36 36 36 36
36 36 35 35 35 35 35 35 35 35 35 35 35 36 37 37 37 37 37 37 36 36 35 35 34 34 33 33 33 33 33 32 32 33 33 33 34 34 34 35 35 35 35 35
36 36 36 35 34 34 34 34 34 34 34 34 35 35 35 36 36 36 36 35 35 34 34 33 33 33 32 32 32 31 31 31 31 31 31 32 32 33 33 33 33 34 33 33
36 36 35 34 33 33 33 33 33 33 34 34 33 33 33 34 34 34 34 33 33 32 32 31 31 31 31 31 30 30 30 30 30 30 31 31 31 32 32 32 32 31 31 31
Wind_Direction
285 283 283 282 281 281 281 281 281 281 280 280 280 283 284 283 283 282 282 282 282 283 284 283 284 285 285 285 286 286 285 285 285 284 282 282 281 278 277 276 275 274 273 272
285 283 283 283 283 281 282 283 283 282 280 279 281 284 285 284 283 282 282 282 282 283 284 284 283 284 284 284 285 285 284 284 283 283 282 280 280 278 276 276 275 274 274 272
287 285 283 283 284 284 284 283 283 283 282 281 282 283 284 283 283 285 284 284 284 285 285 284 283 284 283 283 283 283 283 284 284 282 283 282 281 280 277 277 277 276 276 275
289 286 285 285 284 284 284 284 283 284 283 283 284 283 283 282 283 284 284 284 285 286 286 286 285 283 283 283 283 281 280 282 284 283 283 283 281 280 279 279 279 280 277 275
289 287 285 284 284 284 284 285 285 284 284 284 283 282 282 282 282 284 284 285 286 287 288 288 287 285 283 283 282 279 279 281 284 285 284 283 282 281 280 279 279 280 279 277
288 288 286 286 285 285 284 285 286 286 285 285 284 283 283 283 283 284 285 286 287 287 287 286 286 286 283 282 280 279 279 280 283 284 285 284 283 283 281 280 280 280 279 279
286 286 286 287 286 285 286 287 287 287 286 285 285 286 285 284 282 284 286 285 286 286 286 286 285 285 284 281 279 278 278 279 282 284 286 285 284 285 284 283 283 282 281 280
285 285 286 286 285 285 286 285 285 286 287 286 286 286 286 285 284 284 285 285 285 286 287 286 285 284 284 281 280 280 278 279 282 284 286 286 286 286 286 286 286 285 283 283
282 284 285 285 283 282 283 283 284 284 285 286 285 285 285 285 284 282 284 284 284 286 286 285 285 284 282 281 281 281 280 280 281 283 284 286 286 286 285 286 286 285 284 283
281 282 282 282 281 281 282 283 284 285 286 286 285 285 285 284 283 281 282 284 284 284 284 284 284 284 283 283 284 283 281 281 282 283 284 283 283 284 283 284 284 283 283 282
281 282 279 279 279 279 280 281 283 284 285 285 283 283 283 282 282 280 281 282 282 281 281 282 283 283 282 283 284 283 283 283 283 284 283 281 281 281 282 282 283 283 283 283
282 281 279 277 278 279 280 281 283 283 283 283 283 282 281 280 281 280 280 280 281 280 280 281 282 281 281 281 282 282 284 284 283 284 282 281 281 280 280 281 283 283 284 283
281 280 278 278 278 278 279 281 282 283 283 282 281 281 281 280 281 280 279 279 279 279 279 280 280 280 280 281 281 282 283 284 283 283 283 282 281 280 279 280 281 282 283 283
278 278 278 278 278 278 279 281 281 282 282 281 281 281 280 280 280 279 277 278 279 278 279 280 280 279 279 280 280 282 284 283 283 282 282 282 281 280 279 279 280 281 282 283
277 277 278 278 277 278 279 280 280 280 280 280 280 280 280 280 279 277 276 277 279 279 279 279 280 279 279 279 280 282 283 283 282 281 281 282 282 280 279 279 280 281 282 283
276 277 277 277 277 278 278 279 279 278 278 278 279 279 278 279 278 276 276 278 280 280 280 281 281 280 279 279 280 282 283 283 282 281 281 282 282 281 280 280 281 282 282 283
276 277 277 277 277 278 278 279 279 280 278 278 278 277 277 278 277 276 276 277 279 280 280 280 280 280 279 280 281 283 284 283 283 282 282 282 283 282 281 281 281 282 283 283
275 276 277 277 277 278 278 279 279 278 277 277 277 277 278 278 279 278 276 277 279 281 280 280 280 279 280 280 281 282 283 284 283 282 282 282 283 283 282 282 282 283 284 285
273 274 275 275 275 276 277 277 276 276 276 276 276 277 278 279 280 279 277 277 278 280 280 281 280 279 279 280 281 282 283 284 283 282 282 282 282 282 283 283 284 284 286 287
274 274 275 275 274 274 274 275 274 274 275 276 277 278 278 279 279 279 278 279 279 280 280 280 281 281 280 280 281 282 283 283 282 282 282 281 282 282 283 284 285 286 287 288
274 275 274 273 271 271 272 273 274 274 275 276 277 278 278 279 280 280 280 280 280 280 280 280 281 281 281 281 281 281 281 281 281 282 282 281 282 282 283 284 285 286 287 288
273 273 273 273 272 271 272 273 274 274 275 277 277 278 279 279 280 281 280 280 280 280 280 281 281 281 280 280 280 280 280 280 281 282 282 282 282 283 284 285 286 287 288 289
273 273 273 272 272 271 272 273 273 275 276 277 277 277 278 279 281 281 280 280 280 280 280 281 281 281 281 281 281 280 280 281 281 281 282 282 283 284 285 286 287 288 289 289
273 274 274 273 273 272 271 271 271 273 275 276 277 276 277 278 279 280 280 279 279 279 279 279 280 281 281 281 281 281 281 282 281 281 282 283 284 285 286 288 289 290 290 290
271 272 273 273 273 272 271 270 271 272 274 275 276 277 278 278 279 279 280 280 280 280 279 279 279 280 280 280 281 281 281 281 281 282 282 284 286 286 287 288 289 290 291 291
269 270 272 273 274 273 273 272 273 273 275 276 277 277 277 278 279 280 280 280 280 280 279 278 279 280 280 280 281 281 280 280 281 283 284 285 287 289 290 290 290 290 291 292
270 270 270 272 273 274 274 275 274 275 276 277 277 278 278 279 280 281 281 280 279 279 280 279 279 279 280 280 280 281 281 281 282 283 284 286 287 290 292 292 291 291 291 292
Height
5676 5674 5673 5672 5671 5669 5667 5666 5665 5665 5663 5662 5659 5657 5656 5654 5653 5651 5649 5648 5646 5644 5642 5640 5638 5636 5635 5633 5631 5629 5627 5625 5623 5621 5619 5617 5615 5613 5611 5610 5609 5608 5607 5606
5671 5669 5667 5667 5665 5663 5662 5660 5658 5657 5657 5654 5652 5650 5649 5647 5645 5644 5642 5640 5638 5636 5634 5632 5630 5628 5626 5625 5623 5621 5619 5617 5615 5613 5610 5608 5607 5605 5603 5602 5600 5599 5598 5597
5665 5663 5662 5662 5660 5657 5656 5654 5652 5650 5650 5647 5645 5643 5642 5640 5638 5636 5634 5632 5630 5628 5626 5623 5621 5619 5618 5616 5614 5612 5611 5609 5606 5604 5602 5600 5598 5596 5595 5593 5592 5591 5589 5588
5658 5657 5656 5658 5653 5651 5649 5647 5645 5643 5641 5640 5638 5636 5634 5632 5630 5628 5626 5624 5622 5620 5617 5615 5613 5611 5609 5607 5605 5604 5602 5600 5598 5596 5594 5592 5590 5588 5586 5585 5583 5582 5581 5580
5650 5648 5648 5649 5646 5643 5641 5640 5638 5636 5634 5632 5630 5628 5626 5624 5622 5620 5618 5615 5613 5611 5609 5606 5604 5602 5600 5598 5596 5595 5593 5592 5590 5588 5585 5583 5581 5580 5578 5577 5575 5573 5572 5571
5642 5640 5639 5641 5638 5634 5633 5632 5630 5627 5625 5623 5621 5620 5619 5616 5613 5611 5609 5607 5605 5602 5600 5598 5595 5593 5591 5589 5588 5586 5585 5583 5582 5580 5577 5575 5573 5571 5569 5568 5566 5565 5563 5562
5633 5630 5631 5632 5628 5626 5625 5624 5621 5618 5616 5614 5612 5611 5609 5607 5604 5602 5600 5598 5595 5593 5591 5589 5587 5585 5583 5581 5580 5578 5577 5575 5573 5571 5569 5567 5565 5563 5561 5559 5558 5556 5554 5553
5624 5622 5624 5621 5618 5617 5616 5613 5611 5609 5607 5605 5603 5601 5599 5597 5595 5593 5591 5589 5586 5584 5582 5580 5578 5576 5574 5573 5571 5570 5568 5567 5565 5563 5561 5558 5556 5554 5552 5551 5549 5547 5545 5544
5615 5616 5614 5610 5608 5606 5604 5603 5601 5600 5598 5596 5594 5592 5590 5588 5586 5584 5582 5580 5578 5576 5574 5572 5570 5568 5566 5565 5563 5561 5560 5559 5557 5555 5552 5550 5548 5546 5544 5542 5540 5539 5537 5536
5604 5605 5603 5600 5597 5595 5594 5592 5591 5590 5588 5586 5584 5582 5581 5579 5576 5575 5573 5571 5569 5567 5566 5564 5562 5560 5558 5557 5555 5553 5552 5550 5548 5546 5544 5541 5539 5537 5535 5534 5532 5531 5529 5528
5592 5593 5590 5589 5586 5585 5583 5582 5581 5580 5578 5576 5574 5572 5570 5568 5567 5565 5563 5561 5560 5558 5557 5555 5553 5552 5550 5548 5546 5545 5543 5541 5539 5537 5535 5533 5531 5529 5528 5526 5524 5523 5521 5519
5581 5580 5577 5577 5575 5574 5573 5571 5570 5569 5567 5565 5563 5562 5560 5558 5556 5555 5553 5552 5550 5549 5547 5546 5544 5542 5541 5539 5538 5536 5534 5532 5530 5528 5526 5525 5523 5522 5519 5518 5516 5514 5512 5511
5568 5567 5564 5564 5563 5562 5561 5560 5559 5558 5556 5555 5553 5551 5549 5548 5546 5544 5543 5542 5540 5539 5537 5536 5534 5533 5532 5530 5529 5527 5525 5523 5521 5519 5517 5516 5514 5512 5511 5509 5507 5506 5504 5502
5555 5553 5552 5552 5551 5550 5549 5549 5547 5546 5545 5544 5542 5540 5539 5537 5535 5534 5532 5531 5530 5529 5527 5526 5525 5523 5522 5521 5519 5517 5515 5513 5512 5510 5508 5506 5505 5503 5501 5500 5498 5496 5494 5492
5543 5541 5540 5540 5539 5538 5537 5537 5536 5535 5533 5532 5531 5529 5528 5526 5525 5523 5522 5521 5520 5518 5517 5516 5515 5513 5512 5511 5509 5508 5506 5504 5502 5500 5498 5496 5495 5493 5491 5490 5488 5486 5484 5482
5530 5529 5528 5528 5527 5526 5525 5525 5524 5523 5522 5521 5520 5518 5517 5515 5514 5513 5512 5511 5510 5508 5507 5506 5505 5503 5502 5501 5499 5497 5496 5493 5492 5490 5488 5486 5484 5483 5481 5479 5478 5476 5474 5472
5518 5517 5516 5516 5515 5515 5514 5514 5513 5512 5511 5510 5509 5507 5506 5505 5504 5503 5502 5501 5499 5498 5497 5496 5494 5493 5492 5490 5489 5487 5485 5483 5481 5480 5478 5476 5474 5472 5471 5469 5467 5465 5463 5461
5506 5506 5505 5505 5504 5504 5503 5503 5502 5501 5500 5499 5498 5497 5496 5495 5493 5492 5491 5490 5489 5488 5487 5485 5484 5483 5481 5480 5478 5476 5474 5472 5471 5469 5467 5465 5464 5462 5460 5458 5456 5454 5452 5450
5494 5494 5494 5493 5493 5492 5492 5492 5491 5490 5489 5488 5487 5486 5485 5484 5483 5482 5481 5480 5479 5477 5476 5474 5473 5472 5470 5469 5467 5465 5463 5462 5460 5458 5456 5454 5453 5451 5449 5447 5445 5443 5441 5438
5483 5483 5482 5482 5481 5481 5481 5480 5480 5479 5479 5478 5477 5476 5475 5473 5472 5471 5470 5469 5468 5466 5465 5464 5462 5461 5459 5457 5455 5454 5452 5450 5448 5446 5445 5443 5441 5439 5438 5436 5434 5432 5429 5427
5472 5471 5470 5470 5470 5469 5469 5469 5468 5468 5467 5466 5465 5464 5463 5463 5461 5460 5459 5458 5457 5455 5453 5452 5451 5449 5447 5445 5443 5441 5440 5438 5436 5435 5433 5431 5430 5428 5426 5424 5422 5420 5418 5415
5459 5459 5458 5458 5457 5458 5457 5457 5456 5456 5455 5455 5454 5453 5452 5451 5450 5449 5448 5446 5445 5443 5442 5440 5439 5437 5435 5433 5431 5429 5428 5426 5425 5423 5421 5420 5418 5417 5415 5412 5410 5408 5406 5403
5447 5447 5446 5446 5445 5445 5445 5445 5444 5444 5443 5443 5442 5441 5440 5439 5438 5436 5436 5434 5432 5431 5429 5428 5426 5425 5423 5420 5419 5417 5416 5414 5413 5411 5410 5408 5407 5405 5403 5401 5399 5396 5394 5391
5435 5434 5434 5433 5433 5432 5432 5432 5432 5431 5431 5430 5429 5428 5427 5426 5425 5424 5423 5422 5420 5419 5417 5416 5414 5413 5411 5409 5407 5406 5405 5403 5401 5400 5398 5397 5395 5393 5392 5389 5387 5385 5382 5379
5422 5422 5421 5421 5420 5420 5420 5419 5419 5419 5418 5418 5417 5416 5414 5413 5413 5412 5410 5409 5408 5406 5405 5404 5402 5401 5399 5398 5396 5395 5394 5392 5391 5389 5387 5386 5384 5382 5380 5378 5376 5373 5370 5368
5410 5410 5409 5409 5409 5408 5407 5407 5407 5407 5406 5405 5405 5403 5402 5401 5399 5398 5398 5396 5395 5394 5393 5392 5390 5389 5388 5387 5385 5384 5383 5382 5380 5379 5377 5375 5374 5371 5369 5367 5364 5362 5359 5357
5398 5398 5398 5398 5397 5396 5395 5395 5395 5394 5394 5393 5392 5391 5390 5389 5388 5387 5386 5385 5383 5382 5381 5380 5379 5378 5377 5376 5375 5374 5372 5371 5370 5369 5367 5365 5363 5361 5359 5356 5354 5351 5349 5346